STARLINK-34041, 63844

Orbit data source: Space-Track

STARLINK-34041, 63844 is a payload satellite owned by SpaceX/Seattle (US) in LEO that was launched on Wed, 07 May 2025 UTC via an FALCON 9 launch vehicle from the Air Force Eastern Test Range (AFETR). Payload-class satellites include a variety of spacecraft equipped with specific instruments for various scientific and technological missions. These include communications satellites like Starlink; space stations such as the ISS; scientific satellites like the Hubble; Earth observation satellites from companies like Planet Labs, Umbra, and HawkEye 360; GPS; miniature CubeSats for education and research; and military/defense satellites.

Loading next visibility...
Identifier
63844, 2025-093J
Orbit
LEO
Country
Flag of USUS
Related business
Manufacturer
SpaceX/Seattle
Mission
Operational Commercial Communications
Bus & Motor
STARLINK V2MO, Unknown motor
Mass
575 kg wet, ~530 kg dry
Launch date (UTC)
2025-05-07 (1 year ago)
Launch vehicle
FALCON 9
Launch site
Air Force Eastern Test Range (AFETR)
Object type
Payload
Rocket body
Debris
Shape & HBR
Box + 2 Pan, 17.7 m
Radar Cross Section
36.964 m², Large (>1 m²)

Expand to show TLE details & history
Last TLE update: 17 hours ago

TLE from 17 hours ago
0 STARLINK-34041
1 63844U 25093J   26171.18227922  .00022817  00000-0  83645-3 0  9993
2 63844  43.0008 219.3758 0000874 257.3336 102.7418 15.27566939 63640
Epoch: 2026-06-20T04:22Z
TLE epoch observation values (Epoch: 2026-06-20T04:22:28.924Z)
Latitude
-0.00002°
Longitude
-114.64531°
Altitude
482.996 km
Speed
7.626 km/s
True Right ascension
14h 37m 30s
True Declination
0° 00' 00"
Sunlit
Object was in full shadow at epoch
Visualization orbit readout
Latitude
Unknown
Longitude
Unknown
Altitude
Unknown
Speed
Unknown
Apparent Right ascension
Unknown
Apparent Declination
Unknown
Sunlit
N/A
Visualization observer readout
Local Sidereal Time
08:42:33
Azimuth
Unknown
Elevation
Unknown
Doppler factor
Unknown
Orbital elements
Apogee altitude
485.633 km
Perigee altitude
484.433 km
Semi-major axis
6,863.17 km
Eccentricity
0.00009
Inclination
43.0008°
RAAN
219.3758°
Arg. of periapsis
257.3336°
True anomaly
102.75157°
Mean anomaly
102.7418°
Eccentric anomaly
102.74668°
Mean motion
3.8173 °/min
Orbital period
94.31 mins
BSTAR
0.00083645
Loading maneuver chart data...
Computing Atmospheric mass density...
Loading historical data...
Loading historical data...
Loading historical data...
Loading historical data...
Loading historical data...
Loading historical data...
Loading historical data...

Documentation

Showing up to 5 results
|